New Braunfels, TX (78130)

1:27 AM CDT on May 01, 2017 (GMT -0500)
MUR142 | | Change Station

Elev 715 ft 29.76 °N, 98.08 °W | Updated 2 hours ago

Clear
Clear
58.0 °F
Feels Like 58.0 °F
N
-
Wind Variable Wind from North

Today
High -- | Low -- °F
--% Chance of Precip.
Yesterday
High -- | Low -- °F
Precip. -- in
Pressure 29.98 in
Visibility 10.0 miles
Clouds Clear
Dew Point Not available.
Humidity Not available.
Rainfall 0.09 in
Snow Depth Not available.
6:49 AM 8:09 PM
Waxing Crescent, 30% visible
METAR KBAZ 010551Z AUTO 01004KT 10SM CLR 11/08 A2999 RMK AO2 SLP150 T01110078 10250 20106 402610106 51020
Pressure 29.98 in
Visibility 10.0 miles
Clouds Clear
Dew Point Not available.
Humidity Not available.
Rainfall 0.09 in
Snow Depth Not available.
6:49 AM 8:09 PM
Waxing Crescent, 30% visible
METAR KBAZ 010551Z AUTO 01004KT 10SM CLR 11/08 A2999 RMK AO2 SLP150 T01110078 10250 20106 402610106 51020

Get Severe Weather Alerts

Thanks for signing up!

Be on the lookout for a verification email in your inbox.

You'll start receiving the daily forecast at 8 AM.

×

10-Day Weather Forecast

Almanac

Astronomy

May. 01, 2017 Rise Set
Actual Time
Civil Twilight
Nautical Twilight
Astronomical Twilight
Moon
Length of Visible Light
Length of Day
Tomorrow will be .
, % of the Moon is Illuminated

Today's Extremes

State Highs State Lows

Community

WunderPhotos

WunderBlog® & News

Nearby

Air Quality

  Air Quality AQ Index Pollutant
Not available.

Snow Depth

Station Depth Elevation

Earthquake Activity

City Distance Mag. Time & Date
Minimum magnitude displayed is 2.5.

Coastal Water Temperatures

Place Temperature

Stations

Nearby Weather Stations

Station Location Temp. Windchill Dew Point Humidity Wind Precip. Elev Updated Type
                   

Watches & Warnings

There are currently no watches in effect.